Hyannis, MA

3:27 PM EDT on June 22, 2017 (GMT -0400)
Barnstable Municipal-Boardman-Polando Field

Weather History for KHYA - September, 2013

Change the Weather History Date:

Monday, September 9, 2013

  Actual Average Record
Temperature  
Mean Temperature 56 °F -  
Max Temperature 66 °F 71 °F 89 °F (2016)
Min Temperature 46 °F 54 °F 33 °F (1996)
Degree Days  
Heating Degree Days 9    
Growing Degree Days 6 (Base 50)    
Moisture  
Dew Point 46 °F    
Average Humidity 61    
Maximum Humidity 90    
Minimum Humidity 41    
Precipitation  
Precipitation 0.00 in - - ()
Sea Level Pressure  
Sea Level Pressure 30.18 in    
Wind  
Wind Speed 6 mph (SSW)    
Max Wind Speed 12 mph    
Max Gust Speed 20 mph    
Visibility 10 miles    
Events      
Averages and records for this station are not official NWS values.
T = Trace of Precipitation, MM = Missing Value Source: NWS Daily Summary

Daily Weather History Graph

Daily Weather History Graph

Search for Another Location

Airport or City:

Trip Planner

Search our weather history database for the weather conditions in past years. The results will help you decide how hot, cold, wet, or windy it might be!

Date:

Astronomy

Sep. 09, 2013 Rise Set
Actual Time 6:15 AM EDT 7:00 PM EDT
Civil Twilight 5:47 AM EDT 7:28 PM EDT
Nautical Twilight 5:13 AM EDT 8:01 PM EDT
Astronomical Twilight 4:39 AM EDT 8:36 PM EDT
Moon 10:37 AM EDT (9/9) 9:10 PM EDT (9/9)
Length of Visible Light 13h 41m
Length of Day
12h 45m
Waxing Crescent, 19% of the Moon is Illuminated
Sep 9
Waxing Crescent
Sep 12
First Quarter
Sep 19
Full
Sep 26
Last Quarter
Oct 4
New

Hourly Weather History & Observations

Time (EDT) Temp. Dew Point Humidity Pressure Visibility Wind Dir Wind Speed Gust Speed Precip Events Conditions
12:56 AM 59.0 °F 44.1 °F 58% 30.09 in 10.0 mi North 9.2 mph - N/A   Clear
1:56 AM 57.9 °F 44.1 °F 60% 30.09 in 10.0 mi North 5.8 mph - N/A   Clear
2:56 AM 55.0 °F 45.0 °F 69% 30.10 in 10.0 mi Calm Calm - N/A   Mostly Cloudy
3:56 AM 52.0 °F 45.0 °F 77% 30.12 in 10.0 mi Calm Calm - N/A   Mostly Cloudy
4:56 AM 48.9 °F 44.1 °F 83% 30.14 in 10.0 mi Calm Calm - N/A   Scattered Clouds
5:56 AM 46.0 °F 43.0 °F 89% 30.17 in 10.0 mi Calm Calm - N/A   Clear
6:56 AM 46.9 °F 44.1 °F 90% 30.19 in 10.0 mi Calm Calm - N/A   Clear
7:56 AM 57.0 °F 46.9 °F 69% 30.21 in 10.0 mi Calm Calm - N/A   Clear
8:56 AM 62.1 °F 41.0 °F 46% 30.22 in 10.0 mi East 4.6 mph - N/A   Clear
9:56 AM 64.0 °F 39.9 °F 41% 30.23 in 10.0 mi Variable 3.5 mph - N/A   Clear
10:56 AM 64.0 °F 41.0 °F 43% 30.23 in 10.0 mi Calm Calm - N/A   Clear
11:56 AM 64.9 °F 43.0 °F 45% 30.22 in 10.0 mi South 5.8 mph - N/A   Clear
12:56 PM 66.0 °F 44.1 °F 45% 30.21 in 10.0 mi Variable 6.9 mph - N/A   Clear
1:56 PM 66.0 °F 43.0 °F 43% 30.20 in 10.0 mi SW 10.4 mph - N/A   Clear
2:56 PM 64.9 °F 44.1 °F 47% 30.19 in 10.0 mi SSW 10.4 mph - N/A   Clear
3:56 PM 64.0 °F 46.9 °F 54% 30.20 in 10.0 mi SSW 10.4 mph 19.6 mph N/A   Clear
4:56 PM 64.0 °F 46.9 °F 54% 30.20 in 10.0 mi SSW 10.4 mph - N/A   Clear
5:56 PM 63.0 °F 48.0 °F 58% 30.19 in 10.0 mi SSW 9.2 mph - N/A   Clear
6:56 PM 62.1 °F 50.0 °F 65% 30.18 in 10.0 mi SW 11.5 mph - N/A   Clear
7:56 PM 62.1 °F 51.1 °F 67% 30.19 in 10.0 mi SSW 11.5 mph - N/A   Clear
8:56 PM 62.1 °F 52.0 °F 70% 30.19 in 10.0 mi SSW 9.2 mph - N/A   Clear
9:56 PM 63.0 °F 52.0 °F 67% 30.19 in 10.0 mi SSW 9.2 mph 17.3 mph N/A   Clear
10:56 PM 63.0 °F 53.1 °F 70% 30.19 in 10.0 mi SW 10.4 mph - N/A   Clear
11:56 PM 64.0 °F 52.0 °F 65% 30.19 in 10.0 mi SW 10.4 mph - N/A   Clear